Flag for Canada Weather past 2 weeks in Vancouver, British Columbia, Canada

Now
54 °F

Light rain. Mostly cloudy.


Feels Like: 50 °F
Forecast: 53 / 57 °F
Wind: 10 mph from Southeast

Location: Vancouver International Air-Port

Current Time: Oct 21, 2014 at 7:39:24 AM

Latest Report: Oct 21, 2014 at 7:00 AM


Visibility: 15 mi

Pressure: 29.79 "Hg

Humidity: 94%

Dew point: 52 °F

Location of VancouverLocation

Historic Weather in Vancouver — Graph

°F

Vancouver temperature yesterday

Maximum temperature yesterday: 63 °F (at 11:00 AM)
Minimum temperature yesterday: 55 °F (at 9:00 PM)
Average temperature yesterday: 58 °F

Past Weeks' High & Low Weather Summary

 TemperatureHumidityPressure
High68 °F (Oct 19, 12:00 PM)100% (Oct 6, 10:00 PM)30.22 "Hg (Oct 6, 10:00 PM)
Low48 °F (Oct 12, 6:00 AM)63% (Oct 16, 4:00 PM)29.51 "Hg (Oct 15, 6:00 AM)
Average57 °F90%29.88 "Hg
* Reported Oct 6 6:00 AM — Oct 21 6:00 AM, Vancouver, Weather by CustomWeather, © 2014

Note: Actual official high and low records may vary slightly from our data, if they occured in-between our weather recording intervals... More about our weather records

Advertising

Vancouver weather history for previous 24 hours

 ConditionsComfort  
Time TempWeatherWind HumidityBarometerVisibility
6:00 AM
Oct 21
54 °FOvercast.9 mph94%29.78 "Hg15 mi
5:00 AM54 °FPartly cloudy.9 mph94%29.77 "Hg15 mi
4:00 AM54 °FMostly cloudy.3 mph94%29.76 "Hg15 mi
3:00 AM54 °FLight rain. Mostly cloudy.9 mph100%29.76 "Hg12 mi
2:46 AM54 °FLight rain. Mostly cloudy.10 mph100%29.77 "Hg10 mi
2:00 AM55 °FMostly cloudy.8 mph94%29.76 "Hg10 mi
1:00 AM55 °FMostly cloudy.10 mph94%29.76 "Hg15 mi
12:00 AM55 °FOvercast.10 mph94%29.75 "Hg15 mi
11:00 PM
Oct 20
55 °FOvercast.9 mph94%29.74 "Hg15 mi
10:00 PM55 °FPassing clouds.10 mph94%29.72 "Hg15 mi
9:00 PM55 °FLight rain. Overcast.6 mph94%29.72 "Hg12 mi
8:00 PM57 °FLight rain. Mostly cloudy.2 mph88%29.73 "Hg10 mi
7:56 PM57 °FLight rain. Mostly cloudy.3 mph88%29.73 "Hg12 mi
7:00 PM57 °FBroken clouds.7 mph88%29.72 "Hg15 mi
6:00 PM59 °FBroken clouds.8 mph82%29.71 "Hg15 mi
5:00 PM61 °FBroken clouds.10 mph77%29.72 "Hg15 mi
4:00 PM63 °FPartly sunny.10 mph77%29.72 "Hg20 mi
3:00 PM63 °FScattered clouds.14 mph77%29.72 "Hg20 mi
2:00 PM61 °FScattered clouds.12 mph77%29.72 "Hg15 mi
1:00 PM61 °FBroken clouds.12 mph83%29.72 "Hg15 mi
12:00 PM61 °FBroken clouds.10 mph83%29.71 "Hg15 mi
11:00 AM63 °FBroken clouds.8 mph83%29.71 "Hg12 mi
10:00 AM59 °FBroken clouds.10 mph94%29.70 "Hg10 mi
9:00 AM57 °FBroken clouds.9 mph94%29.68 "Hg10 mi
8:00 AM57 °FSprinkles. Overcast.8 mph94%29.67 "Hg8 mi
7:00 AM57 °FSprinkles. Mostly cloudy.10 mph94%29.66 "Hg10 mi
Weather by CustomWeather, © 2014

See weather overviewHow to use our weather pages